General Aviation Weather

Text Reports

Enter one or more of the following location identifiers separated by a space:

Zip Code, Four-Character ICAO or Three-Character IATA airport codes.

METAR - Aviation Routine Weather Report
KHRJ - Erwin, North Carolina
Updated at 8:15 PM GMT on December 17, 2014 (3:15 PM EST):
METAR KHRJ 172015Z AUTO 26004KT 10SM CLR 16/03 A3004 RMK AO2 T01550025
TAF - Terminal Area Forecast
KHRJ - Erwin, North Carolina
Updated at 8:15 PM GMT on December 17, 2014 (3:15 PM EST):
No TAF is currently available for this location.
Decoded:
No decoded TAF is available.
PIREP - Pilot Weather Report
KHRJ - Erwin, North Carolina
Updated at 8:15 PM GMT on December 17, 2014 (3:15 PM EST):
No PIREP is currently available for this location.
AIRMET - Airmens Meteorological Information
KHRJ - Erwin, North Carolina
Updated at 8:15 PM GMT on December 17, 2014 (3:15 PM EST):
No AIRMET is currently available for this location.
SIGMET - Significant Meteorological Information
KHRJ - Erwin, North Carolina
Updated at 8:15 PM GMT on December 17, 2014 (3:15 PM EST):
No SIGMET is currently available for this location.
NOTAM - Notice to Airmen
KHRJ - Erwin, North Carolina
Updated at 8:15 PM GMT on December 17, 2014 (3:15 PM EST):
No NOTAM is currently available for this location.
Forecast Area
KHRJ - Erwin, North Carolina
Updated at 8:15 PM GMT on December 17, 2014 (3:15 PM EST):
No NOTAM is currently available for this location.
Aviation Weather Maps